Вернуться в каталог

ONEWEB-0200

АктивенСвязьPO
NORAD 48244·PAYLOAD·🇬🇧 United Kingdom

Запущен Apr 25, 2021 с Vostochny Cosmodrome

Loading…

Ближайшие Пролёты (ближайшие 24 часа)

TLE

СвежийSource: CelesTrak SupGP

Эпоха: Sep 14, 2026, 13:59 UTC

1 48244C 21031AL  26257.58312917 -.00000128  00000+0 -34637-3 0  2572
2 48244  87.8909 271.8729 0001692  97.0699   2.2269 13.14507499    14

Отслеживайте ONEWEB-0200 в реальном времени с AllMySat

Download on the App Store